Cut Bank, MT

1:57 PM MDT on April 27, 2017 (GMT -0600)
Cut Bank Municipal

Weather History for KCTB - August, 2013

Change the Weather History Date:

Tuesday, August 20, 2013

  Actual Average Record
Temperature  
Mean Temperature 68 °F 63 °F  
Max Temperature 84 °F 78 °F 92 °F (1967)
Min Temperature 51 °F 48 °F 35 °F (1938)
Degree Days  
Heating Degree Days 0 4  
Month to date heating degree days 23 53  
Since 1 June heating degree days 273 372  
Since 1 July heating degree days 64 139  
Cooling Degree Days 3 2  
Month to date cooling degree days 59 53  
Year to date cooling degree days 158 142  
Since 1 June cooling degree days 156 140  
Growing Degree Days 20 (Base 50)    
Moisture  
Dew Point 37 °F    
Average Humidity 38    
Maximum Humidity 62    
Minimum Humidity 14    
Precipitation  
Precipitation 0.00 in 0.04 in 0.68 in (2014)
Month to date precipitation 1.28 0.75  
Year to date precipitation 10.78 8.22  
Snow  
Snow 0.00 in - - ()
Snow Depth 0.00 in    
Sea Level Pressure  
Sea Level Pressure 29.87 in    
Wind  
Wind Speed 11 mph (West)    
Max Wind Speed 24 mph    
Max Gust Speed 32 mph    
Visibility 10 miles    
Events      
T = Trace of Precipitation, MM = Missing Value Source: NWS Daily Summary

Daily Weather History Graph

Daily Weather History Graph

Search for Another Location

Airport or City:

Trip Planner

Search our weather history database for the weather conditions in past years. The results will help you decide how hot, cold, wet, or windy it might be!

Date:

Astronomy

Aug. 20, 2013 Rise Set
Actual Time 6:30 AM MDT 8:34 PM MDT
Civil Twilight 5:56 AM MDT 9:08 PM MDT
Nautical Twilight 5:14 AM MDT 9:50 PM MDT
Astronomical Twilight 4:26 AM MDT 10:37 PM MDT
Moon 8:02 PM MDT (8/20) 6:07 AM MDT (8/20)
Length of Visible Light 15h 11m
Length of Day
14h 04m
Full, 100% of the Moon is Illuminated
Aug 20
Full
Aug 20
Full
Aug 28
Last Quarter
Sep 5
New
Sep 12
First Quarter

Hourly Weather History & Observations

Time (MDT) Temp. Dew Point Humidity Pressure Visibility Wind Dir Wind Speed Gust Speed Precip Events Conditions
12:56 AM 64.0 °F 43.0 °F 46% 29.84 in 10.0 mi WNW 11.5 mph - N/A   Clear
1:56 AM 59.0 °F 44.1 °F 58% 29.86 in 10.0 mi East 6.9 mph - N/A   Clear
2:56 AM 60.1 °F 44.1 °F 55% 29.85 in 10.0 mi WNW 4.6 mph - N/A   Clear
3:56 AM 59.0 °F 43.0 °F 55% 29.86 in 10.0 mi West 4.6 mph - N/A   Clear
4:56 AM 57.9 °F 44.1 °F 60% 29.86 in 10.0 mi West 9.2 mph - N/A   Clear
5:56 AM 57.0 °F 43.0 °F 59% 29.88 in 10.0 mi West 6.9 mph - N/A   Clear
6:56 AM 57.9 °F 44.1 °F 60% 29.89 in 10.0 mi WSW 10.4 mph - N/A   Clear
7:56 AM 63.0 °F 45.0 °F 52% 29.89 in 10.0 mi WSW 9.2 mph - N/A   Clear
8:56 AM 71.1 °F 43.0 °F 36% 29.88 in 10.0 mi West 16.1 mph - N/A   Clear
9:56 AM 73.9 °F 39.9 °F 29% 29.88 in 10.0 mi WSW 12.7 mph 20.7 mph N/A   Clear
10:56 AM 75.9 °F 37.9 °F 25% 29.87 in 10.0 mi West 13.8 mph 19.6 mph N/A   Clear
11:56 AM 78.1 °F 37.9 °F 24% 29.87 in 10.0 mi WSW 11.5 mph 21.9 mph N/A   Clear
12:56 PM 81.0 °F 36.0 °F 20% 29.86 in 10.0 mi SW 13.8 mph 20.7 mph N/A   Scattered Clouds
1:56 PM 82.0 °F 35.1 °F 18% 29.86 in 10.0 mi West 17.3 mph 23.0 mph N/A   Clear
2:56 PM 82.9 °F 36.0 °F 19% 29.85 in 10.0 mi SW 16.1 mph 32.2 mph N/A   Partly Cloudy
3:56 PM 82.9 °F 34.0 °F 17% 29.84 in 10.0 mi West 17.3 mph 29.9 mph N/A   Clear
4:56 PM 82.9 °F 28.0 °F 14% 29.83 in 10.0 mi West 15.0 mph 28.8 mph N/A   Clear
5:56 PM 82.9 °F 28.0 °F 14% 29.84 in 10.0 mi West 18.4 mph 23.0 mph N/A   Clear
6:56 PM 81.0 °F 27.0 °F 14% 29.84 in 10.0 mi West 15.0 mph - N/A   Clear
7:56 PM 73.9 °F 34.0 °F 23% 29.86 in 10.0 mi WNW 10.4 mph - N/A   Clear
8:56 PM 63.0 °F 35.1 °F 35% 29.91 in 10.0 mi West 6.9 mph - N/A   Clear
9:56 PM 62.1 °F 33.1 °F 34% 29.94 in 10.0 mi WNW 5.8 mph - N/A   Clear
10:56 PM 57.9 °F 32.0 °F 37% 29.96 in 10.0 mi NW 8.1 mph - N/A   Clear
11:56 PM 59.0 °F 32.0 °F 36% 29.96 in 10.0 mi WNW 10.4 mph - N/A   Clear